Temperature
29 30 30 30 30 30 30 30 30 31 31 31 30 30 28 27 26 26 25 24 24 24 23 23 22 22 22 21 21 20 20 19 19 19 19 19 18 18 18 18 17 17 17 17
28 29 29 29 30 30 30 30 30 31 30 31 29 28 27 27 26 25 25 24 24 23 23 23 22 22 22 21 21 21 20 20 19 19 19 19 18 18 18 17 17 17 17 16
27 28 28 28 29 29 30 30 30 30 30 29 29 27 26 26 25 25 25 24 23 23 23 22 22 22 22 22 21 21 20 20 19 19 19 18 18 18 17 17 17 17 16 16
27 27 26 29 29 30 29 29 29 29 29 28 27 25 24 24 24 24 24 24 23 23 23 22 22 22 22 21 21 20 20 20 20 19 19 18 18 18 17 17 17 17 16 16
26 26 27 27 28 28 28 27 28 28 27 27 26 26 25 23 23 23 23 22 22 22 23 22 22 22 22 21 21 20 20 19 19 19 18 18 18 17 17 17 17 16 16 16
25 26 26 27 27 26 27 26 26 26 26 26 26 28 26 22 22 21 21 21 22 22 22 22 21 21 21 21 20 20 19 19 19 19 18 18 17 17 17 17 16 16 16 15
25 25 26 26 25 25 26 26 24 24 24 24 24 24 22 21 21 21 20 20 21 21 21 21 21 21 20 20 20 19 19 19 18 18 18 17 17 17 17 16 16 16 16 15
24 25 25 23 24 25 24 22 22 22 22 22 21 21 20 20 20 20 20 20 20 20 20 20 20 20 19 19 19 19 19 18 18 18 17 17 17 16 16 16 15 15 15 15
23 23 21 20 21 20 20 20 20 21 21 20 20 20 20 19 19 19 19 19 19 19 19 19 19 19 18 18 18 18 18 18 18 17 17 17 16 16 16 15 15 15 14 14
21 21 20 19 19 19 19 19 19 19 19 20 20 19 19 19 18 18 18 18 18 18 18 18 18 18 18 18 18 18 17 17 17 17 16 16 16 15 15 15 14 14 14 14
20 20 19 19 18 18 18 18 18 18 19 19 19 18 18 18 18 18 18 18 18 18 18 17 18 18 18 18 18 17 17 17 16 16 16 15 15 15 15 14 14 14 14 13
20 19 19 18 17 17 17 18 18 18 18 18 17 17 17 17 17 17 17 17 17 17 17 17 17 17 17 17 17 16 16 16 16 15 15 15 15 14 14 14 14 14 13 13
17 17 17 17 17 17 17 17 17 17 17 17 17 17 16 16 16 16 16 16 16 16 16 16 16 16 16 16 16 16 16 16 15 15 15 14 14 14 13 13 13 13 13 12
15 15 16 16 16 16 16 16 16 16 16 16 16 16 16 16 15 15 15 15 15 15 15 15 15 15 15 15 15 15 15 15 15 14 14 14 14 13 13 13 12 12 12 12
15 15 15 15 15 15 15 16 16 16 16 16 15 15 15 15 15 15 15 15 15 15 15 14 15 15 15 15 14 14 14 14 14 13 13 13 13 13 12 12 12 11 11 11
14 14 15 15 15 15 15 15 16 16 15 15 15 15 14 14 14 14 14 14 14 14 14 14 14 14 14 14 14 14 13 13 13 13 13 13 12 12 12 12 11 11 11 11
14 14 14 15 15 15 15 15 15 15 15 15 14 14 14 14 14 14 14 13 13 13 13 13 13 13 13 13 13 13 13 13 13 12 12 12 12 12 12 11 11 11 11 11
13 13 13 13 14 14 14 14 14 14 14 14 14 13 13 13 13 13 13 13 13 13 13 13 13 12 12 12 12 12 12 12 12 12 12 11 11 11 11 11 11 11 10 10
12 12 12 12 13 13 13 13 13 13 13 13 13 13 13 13 13 12 12 12 12 12 12 12 12 12 12 12 12 12 12 12 11 11 11 11 11 11 11 10 10 10 10 10
11 11 12 12 12 12 12 12 12 12 12 12 12 12 12 12 12 12 12 11 11 11 11 11 11 11 11 11 11 11 11 11 11 11 11 11 11 10 10 10 10 10 10 10
11 11 11 11 11 12 12 12 12 12 12 11 12 11 11 11 11 11 11 11 11 11 11 11 11 11 11 11 11 11 11 11 10 10 10 10 10 10 10 10 10 9 9 9
10 10 10 10 10 11 11 11 11 11 11 11 11 11 11 10 10 10 10 10 10 10 10 10 10 10 10 10 10 10 10 10 10 10 10 10 10 9 9 9 9 9 8 8
9 9 9 10 10 10 10 10 10 10 10 10 10 10 10 10 10 10 10 10 10 10 10 10 10 10 10 10 10 10 10 10 9 9 9 9 9 9 9 9 8 8 8 8
9 9 9 9 9 9 9 9 10 10 10 10 10 10 10 10 9 10 10 9 9 10 10 9 10 10 10 9 9 9 9 9 9 9 9 9 8 8 8 8 8 8 7 7
8 9 9 9 9 9 9 9 9 9 9 9 9 9 9 9 9 9 9 9 9 9 9 9 9 9 9 9 9 9 9 9 8 8 8 8 8 8 8 7 7 7 7 7
8 8 8 8 9 9 9 9 9 9 9 9 9 9 9 9 9 9 9 9 9 9 8 8 8 8 8 8 8 8 8 8 8 8 8 7 7 7 7 7 6 6 6 6
8 8 8 9 9 9 9 9 9 9 9 9 9 9 9 9 9 9 8 8 8 8 8 8 8 8 8 8 8 7 7 7 7 7 7 7 7 6 6 6 6 6 5 5
Wind_Speed
13 10 9 13 15 15 16 15 13 11 10 6 3 3 2 1 3 6 8 9 10 11 10 11 11 10 10 10 10 9 9 9 8 7 7 6 6 5 5 4 4 3 3 3
14 13 12 13 14 15 16 14 14 11 9 3 3 2 2 1 3 5 7 8 9 10 10 11 11 11 10 10 10 10 9 9 8 8 7 7 6 6 5 4 4 3 3 2
14 13 13 17 15 15 14 12 12 12 7 2 3 2 2 1 2 4 6 7 8 9 9 9 10 10 11 10 10 10 10 9 9 9 8 8 7 7 6 5 4 4 3 3
12 12 17 11 7 10 11 10 8 6 3 2 2 1 1 2 1 2 3 5 7 7 8 9 9 10 10 11 11 10 10 9 9 9 8 8 7 7 6 5 5 4 3 3
12 16 15 8 5 7 9 8 5 5 3 2 2 3 3 5 3 1 2 3 4 6 7 8 9 9 10 11 11 10 9 9 9 9 8 8 7 7 6 5 5 4 4 3
12 16 17 9 5 4 7 8 4 3 2 2 3 5 1 5 4 2 1 1 2 4 6 7 8 9 10 10 10 10 9 9 8 8 8 8 8 7 6 5 5 5 4 4
15 15 10 1 2 6 10 5 3 1 1 1 1 3 3 3 4 4 3 2 2 3 5 6 7 8 8 8 8 8 8 8 8 8 8 8 7 7 6 6 6 5 5 4
13 15 9 3 2 4 1 3 2 1 2 2 2 2 3 3 4 4 4 4 3 4 4 5 6 6 6 7 7 7 8 9 8 8 7 7 7 6 6 6 6 6 5 4
4 3 4 3 2 3 2 2 2 2 2 2 1 2 3 3 4 4 4 4 3 4 4 4 4 4 5 5 6 7 8 8 9 8 7 7 8 7 6 6 5 5 5 5
2 2 2 2 3 3 3 3 3 3 2 2 2 2 2 3 3 3 3 3 2 3 3 4 4 4 4 4 6 7 7 8 8 8 7 7 6 6 6 6 5 5 5 4
4 3 2 2 3 3 4 4 4 4 3 3 3 2 2 2 2 2 3 3 2 2 2 3 3 3 3 4 5 6 6 6 6 7 7 6 5 3 4 3 3 3 4 4
4 2 2 2 1 2 2 3 4 4 3 3 3 2 2 2 2 2 2 2 2 2 2 2 2 2 2 3 4 5 6 6 5 5 5 6 6 4 5 3 5 5 3 1
3 3 2 1 1 2 3 3 3 4 3 3 2 2 2 2 2 2 1 2 1 1 1 1 1 1 1 2 3 4 5 5 4 5 5 6 6 6 5 4 5 4 3 3
2 3 4 3 3 3 4 5 4 4 3 2 2 2 2 2 2 2 2 1 0 0 0 1 1 1 1 1 2 3 4 4 4 4 5 5 5 5 5 5 5 4 4 5
5 5 5 5 5 5 5 5 5 4 3 3 2 2 2 2 2 2 2 1 0 0 0 0 0 0 1 2 2 2 2 2 3 3 3 4 4 5 5 5 5 5 5 5
6 5 5 6 6 6 6 6 6 4 4 3 3 2 2 2 2 2 1 1 1 1 1 1 1 0 1 1 2 2 2 2 2 3 3 3 4 4 4 4 5 5 5 4
6 6 6 6 6 6 6 5 6 6 4 3 3 2 2 1 1 1 1 2 1 1 2 1 0 0 1 1 1 1 2 2 4 3 3 4 4 4 4 4 4 4 4 4
6 6 6 6 6 6 6 5 6 6 5 5 4 4 3 3 2 2 1 2 1 1 1 1 0 0 1 1 1 1 2 2 2 2 2 2 2 3 3 3 3 4 3 4
5 5 5 6 5 5 6 6 5 5 5 5 5 4 3 3 3 2 1 1 1 2 1 1 1 2 2 2 2 2 2 3 3 2 2 3 3 3 3 3 3 3 3 3
5 5 5 5 5 5 5 4 4 4 4 4 3 3 3 3 3 2 1 2 2 1 0 0 1 1 2 2 2 2 3 3 3 3 3 3 2 2 2 2 2 2 2 3
5 5 5 5 5 4 4 3 3 3 3 3 2 3 3 2 2 2 1 1 1 1 0 1 1 1 2 2 3 2 2 3 3 3 2 2 2 2 2 2 2 2 1 1
5 5 5 4 3 3 2 2 2 2 2 1 1 1 1 1 0 0 0 0 0 1 0 1 1 2 1 2 3 3 3 3 2 2 3 2 2 2 2 2 2 2 2 1
5 4 3 2 1 1 2 1 1 1 2 2 2 1 1 1 1 1 1 1 1 1 1 2 4 3 0 1 2 3 3 3 3 3 3 2 2 2 2 2 2 2 2 1
2 2 1 1 1 2 2 3 3 4 5 4 4 4 3 3 3 3 3 4 5 4 4 5 5 2 0 2 3 3 4 3 3 3 3 3 3 3 3 2 2 2 2 2
1 1 2 2 2 2 3 3 5 5 5 4 5 5 4 3 3 4 4 5 6 5 6 6 5 3 3 4 5 5 5 5 4 4 4 4 4 3 3 3 3 2 3 2
2 2 3 3 3 2 3 3 4 4 5 5 5 5 5 5 5 5 5 6 8 7 6 6 6 5 6 6 7 7 6 6 6 5 6 5 5 5 4 4 5 4 3 3
3 4 3 4 4 3 3 4 5 5 5 5 5 5 5 5 5 5 6 6 6 6 6 6 6 6 6 7 7 7 6 6 7 6 6 6 6 6 6 6 5 5 4 4
Wind_Direction
249 252 237 228 222 216 225 240 246 241 243 253 295 316 324 226 177 176 174 177 179 180 177 176 175 175 175 175 174 176 177 177 176 173 171 171 171 171 169 171 174 170 173 176
237 237 235 239 231 223 227 234 242 243 243 260 310 324 321 239 190 189 187 186 184 182 178 179 178 178 175 176 174 175 178 177 171 169 169 168 167 165 164 166 164 165 173 175
234 228 232 235 229 226 225 229 234 235 240 264 292 328 331 303 221 211 203 195 191 188 185 181 181 181 179 175 173 176 176 173 171 173 172 171 169 165 168 169 164 162 160 151
235 222 232 235 226 228 227 228 232 239 246 271 303 349 34 4 300 231 210 202 194 190 184 180 179 179 178 174 174 174 173 171 169 172 171 170 169 167 167 168 164 161 156 148
230 226 229 213 201 209 215 219 217 222 229 249 260 209 107 41 13 314 227 205 193 194 184 176 175 174 174 174 172 172 172 172 172 171 169 170 170 167 167 168 166 159 152 149
229 234 233 214 178 205 219 213 192 214 235 267 251 243 58 23 15 21 31 152 176 180 170 165 168 169 172 175 173 177 176 172 170 171 173 175 172 170 169 170 165 160 150 153
229 233 234 199 165 193 216 200 117 156 300 288 341 353 19 22 31 39 53 77 120 147 156 158 161 167 173 173 176 174 168 165 166 171 176 173 169 170 169 171 167 165 153 149
227 232 224 49 166 208 36 58 78 61 38 37 51 33 44 45 41 44 57 68 92 116 125 136 151 166 171 171 169 168 165 164 164 168 171 167 165 165 169 171 168 166 163 165
245 235 65 50 53 42 45 55 40 33 36 49 43 39 47 50 47 49 55 64 82 105 115 121 137 161 169 163 165 169 167 167 165 165 165 165 168 167 168 174 182 179 180 182
217 167 97 69 74 66 61 48 26 26 25 36 45 42 42 38 41 42 45 50 69 92 109 119 130 143 151 156 167 168 169 168 164 161 161 163 170 174 175 179 185 187 187 185
223 196 166 123 77 58 50 42 38 35 34 31 36 44 40 30 25 29 32 23 42 78 100 109 119 121 131 155 168 167 165 162 161 162 160 161 160 155 176 174 180 189 185 182
246 221 234 162 61 37 34 32 27 22 23 24 26 28 21 12 5 15 23 31 47 62 82 94 109 116 132 156 169 172 169 165 164 163 165 166 158 145 68 77 92 89 66 97
283 290 284 260 302 339 345 350 355 351 345 344 4 6 5 359 346 358 17 30 42 44 65 96 116 111 129 165 172 178 177 170 172 169 173 177 173 170 161 123 96 100 112 114
287 278 263 269 290 317 323 322 322 321 322 324 333 345 351 351 348 351 356 4 33 95 122 149 151 140 140 162 168 179 182 172 180 177 180 182 179 177 175 174 169 169 166 158
281 267 261 276 287 293 297 296 290 292 303 305 312 322 325 332 335 345 348 337 354 199 174 141 159 145 134 158 161 167 187 188 180 181 180 176 175 176 180 182 182 177 169 161
285 273 264 268 273 272 275 280 284 287 291 297 301 306 314 317 315 320 332 340 326 325 343 20 5 17 131 162 175 177 181 153 181 184 179 178 180 183 187 189 186 186 187 179
279 272 268 267 269 269 271 280 286 285 280 282 289 286 279 265 269 290 317 339 356 346 335 319 282 135 165 182 193 195 191 171 174 189 194 191 189 190 192 193 194 190 187 173
284 284 281 277 276 274 272 272 275 278 277 281 278 270 268 263 273 296 324 338 347 343 334 324 344 126 146 170 197 219 196 194 196 189 182 184 186 190 187 185 187 189 176 164
290 292 288 280 277 275 274 268 268 274 280 275 267 264 269 272 273 282 289 277 274 279 301 337 106 150 161 172 196 198 190 181 181 186 178 168 183 186 183 180 178 184 184 176
305 303 298 294 286 277 274 274 274 275 281 275 264 259 264 273 276 277 279 278 290 315 323 86 180 181 178 188 219 190 176 174 173 174 175 174 172 177 169 162 162 168 178 181
309 311 307 304 302 294 283 273 268 274 281 274 264 267 275 280 276 269 257 270 14 43 108 152 198 182 175 167 208 175 168 168 169 172 169 166 162 158 144 140 147 147 152 155
313 313 309 309 311 314 310 288 274 278 289 311 311 286 277 274 286 320 83 12 87 31 215 151 138 83 105 179 174 164 157 156 156 151 148 147 149 145 135 135 138 135 132 128
302 305 308 314 322 341 356 7 31 54 63 56 49 73 88 72 72 108 101 60 80 71 76 81 79 83 238 187 130 133 132 133 130 126 121 117 117 115 115 121 122 123 123 124
306 312 325 357 51 68 59 56 67 73 75 68 65 68 80 91 82 71 79 69 56 68 78 75 76 80 213 112 104 103 102 100 100 102 104 103 103 101 99 101 98 90 80 71
6 35 64 81 86 82 82 89 93 89 87 83 81 77 79 85 91 85 84 84 79 81 86 79 67 57 79 78 83 84 88 88 87 87 86 82 83 86 85 81 77 78 72 62
52 62 70 81 89 94 95 100 106 106 102 92 85 81 82 85 86 90 91 91 87 81 80 82 79 73 71 72 75 77 79 85 87 82 77 76 74 73 71 68 67 63 61 53
85 88 87 85 84 88 97 101 99 96 95 98 97 91 89 89 90 91 92 92 91 88 84 83 81 80 80 79 77 73 71 69 68 68 70 68 67 68 68 66 60 57 55 58
Height
1490 1486 1486 1489 1491 1494 1496 1494 1497 1495 1494 1492 1493 1496 1498 1500 1502 1503 1505 1507 1509 1511 1514 1516 1518 1521 1523 1525 1527 1528 1530 1532 1533 1534 1534 1535 1536 1537 1537 1537 1538 1538 1538 1538
1494 1488 1488 1490 1487 1489 1491 1490 1490 1490 1492 1490 1494 1496 1498 1499 1500 1501 1503 1505 1507 1509 1511 1513 1516 1518 1520 1523 1524 1526 1528 1530 1531 1532 1532 1533 1534 1535 1535 1536 1536 1536 1536 1536
1495 1488 1491 1495 1486 1486 1487 1486 1487 1490 1490 1491 1493 1495 1497 1498 1498 1499 1501 1503 1505 1506 1508 1510 1513 1515 1518 1519 1521 1523 1525 1527 1528 1529 1530 1531 1532 1533 1533 1534 1534 1534 1534 1535
1491 1494 1507 1485 1478 1480 1484 1485 1486 1487 1490 1492 1494 1496 1497 1497 1497 1498 1499 1500 1502 1504 1506 1507 1510 1512 1514 1516 1518 1520 1522 1523 1525 1526 1528 1529 1529 1530 1531 1532 1532 1533 1533 1533
1490 1493 1490 1484 1482 1482 1485 1488 1487 1489 1491 1492 1493 1493 1494 1496 1496 1497 1497 1498 1499 1501 1503 1505 1507 1509 1511 1513 1515 1517 1519 1520 1522 1524 1525 1526 1527 1528 1529 1530 1530 1531 1531 1531
1490 1493 1492 1481 1481 1485 1486 1491 1489 1491 1491 1492 1492 1488 1492 1496 1495 1495 1496 1496 1497 1498 1500 1502 1503 1506 1508 1510 1512 1514 1516 1518 1519 1521 1523 1524 1525 1526 1527 1528 1529 1529 1529 1529
1487 1487 1480 1481 1484 1486 1493 1490 1491 1492 1493 1493 1493 1494 1497 1495 1495 1494 1494 1494 1495 1496 1498 1499 1501 1503 1506 1508 1510 1512 1513 1515 1516 1518 1520 1521 1522 1523 1524 1525 1526 1527 1527 1527
1484 1486 1487 1486 1485 1486 1489 1491 1492 1493 1494 1494 1495 1496 1496 1495 1495 1495 1494 1494 1494 1495 1496 1497 1499 1501 1503 1505 1507 1509 1511 1512 1513 1515 1517 1518 1520 1521 1522 1523 1524 1524 1525 1525
1482 1485 1489 1490 1490 1492 1493 1493 1494 1494 1494 1495 1495 1496 1496 1495 1495 1495 1494 1494 1495 1495 1495 1496 1498 1500 1502 1503 1504 1506 1508 1509 1510 1512 1513 1515 1516 1517 1519 1520 1521 1522 1523 1523
1488 1488 1491 1492 1493 1494 1494 1495 1495 1495 1495 1495 1495 1496 1496 1495 1495 1495 1494 1494 1495 1495 1495 1496 1496 1498 1499 1501 1502 1504 1505 1506 1507 1508 1510 1511 1513 1515 1516 1517 1518 1518 1519 1520
1489 1491 1492 1493 1495 1495 1495 1496 1496 1496 1496 1496 1496 1496 1496 1496 1495 1495 1495 1494 1494 1494 1495 1496 1496 1496 1498 1499 1500 1501 1502 1504 1505 1506 1507 1509 1510 1512 1513 1514 1515 1516 1517 1517
1487 1491 1492 1494 1496 1496 1496 1496 1496 1496 1496 1496 1496 1496 1495 1495 1495 1494 1494 1494 1493 1494 1494 1494 1495 1495 1496 1497 1498 1499 1500 1501 1502 1503 1505 1506 1507 1508 1509 1511 1511 1512 1513 1514
1493 1493 1494 1495 1496 1496 1496 1496 1496 1496 1496 1495 1495 1495 1495 1494 1494 1493 1492 1492 1492 1492 1492 1493 1493 1494 1494 1495 1496 1497 1498 1498 1500 1501 1502 1503 1504 1505 1506 1507 1508 1509 1510 1510
1493 1494 1494 1494 1495 1496 1496 1496 1495 1495 1495 1495 1495 1494 1494 1493 1493 1492 1491 1491 1491 1491 1491 1492 1492 1492 1492 1493 1494 1495 1496 1497 1497 1498 1499 1500 1501 1502 1503 1504 1505 1505 1506 1507
1493 1493 1494 1494 1494 1495 1495 1495 1494 1493 1494 1494 1494 1493 1493 1492 1491 1491 1490 1490 1489 1489 1490 1490 1490 1490 1490 1491 1492 1493 1494 1495 1495 1496 1497 1498 1498 1500 1501 1502 1503 1503 1504 1504
1492 1492 1492 1492 1492 1492 1492 1493 1492 1492 1492 1492 1492 1492 1491 1491 1490 1489 1489 1488 1488 1488 1488 1488 1488 1489 1488 1489 1490 1491 1492 1492 1493 1494 1495 1495 1496 1498 1499 1499 1500 1501 1501 1502
1490 1490 1489 1490 1490 1490 1490 1490 1490 1490 1490 1490 1490 1490 1490 1489 1489 1488 1488 1487 1487 1486 1486 1486 1487 1487 1487 1487 1488 1489 1490 1490 1491 1492 1493 1493 1494 1495 1496 1497 1498 1498 1499 1499
1488 1488 1488 1488 1488 1488 1487 1487 1488 1488 1488 1488 1488 1487 1487 1487 1486 1486 1486 1485 1485 1485 1485 1485 1485 1485 1485 1486 1486 1487 1488 1489 1489 1490 1490 1491 1492 1493 1494 1495 1495 1496 1496 1497
1486 1485 1485 1484 1484 1484 1485 1485 1485 1485 1484 1484 1484 1484 1484 1484 1484 1483 1483 1483 1483 1483 1483 1483 1483 1483 1483 1484 1485 1485 1486 1487 1487 1488 1489 1489 1491 1491 1492 1492 1493 1494 1494 1495
1483 1483 1482 1482 1481 1481 1481 1481 1482 1481 1481 1481 1481 1481 1481 1481 1481 1481 1481 1481 1481 1482 1481 1482 1482 1482 1482 1483 1483 1484 1485 1485 1486 1487 1487 1488 1489 1490 1490 1490 1491 1491 1491 1492
1481 1480 1479 1478 1478 1478 1478 1478 1478 1478 1478 1478 1478 1478 1478 1478 1479 1479 1479 1479 1480 1480 1480 1480 1480 1481 1481 1482 1482 1483 1484 1484 1485 1485 1486 1486 1487 1488 1488 1488 1489 1489 1489 1489
1478 1477 1476 1476 1476 1475 1475 1476 1476 1476 1476 1476 1476 1476 1476 1476 1476 1477 1477 1478 1478 1478 1479 1479 1480 1480 1480 1481 1482 1482 1482 1483 1484 1484 1485 1485 1486 1486 1487 1487 1488 1488 1488 1488
1474 1474 1474 1473 1473 1473 1473 1473 1474 1474 1474 1474 1475 1475 1475 1475 1475 1476 1476 1477 1477 1477 1478 1478 1478 1479 1479 1480 1481 1481 1481 1482 1483 1483 1484 1484 1485 1485 1486 1486 1487 1487 1487 1487
1472 1472 1472 1472 1472 1472 1473 1473 1473 1473 1474 1474 1474 1474 1474 1475 1475 1476 1476 1476 1476 1477 1477 1478 1478 1478 1479 1480 1480 1480 1480 1481 1482 1482 1483 1484 1484 1484 1485 1485 1486 1486 1486 1486
1471 1471 1471 1472 1472 1472 1473 1473 1474 1474 1474 1475 1475 1476 1476 1476 1476 1477 1477 1477 1477 1477 1478 1478 1479 1479 1480 1480 1480 1480 1480 1481 1481 1482 1482 1483 1483 1484 1484 1484 1485 1485 1485 1484
1472 1472 1472 1473 1473 1473 1474 1474 1475 1476 1476 1477 1477 1477 1478 1478 1478 1478 1479 1479 1479 1479 1480 1480 1480 1480 1480 1480 1480 1481 1481 1481 1482 1482 1483 1483 1483 1484 1484 1484 1484 1484 1484 1483
1474 1474 1474 1474 1475 1476 1476 1477 1477 1478 1478 1479 1479 1479 1480 1480 1481 1481 1481 1481 1481 1482 1482 1482 1482 1482 1482 1482 1482 1483 1483 1483 1483 1483 1484 1484 1484 1483 1483 1483 1483 1483 1482 1482